Home   Weather   Vincennes   Past weeks

Flag for USA Past Weather in Vincennes, Indiana, USA — Yesterday and Last 2 Weeks

Now
69 °F

Partly sunny.


Feels Like: 69 °F
Forecast: 55 / 70 °F
Wind: 20 mph from Northwest

Location: Lawrenceville-Vincennes International Airport

Current Time: Sep 28, 2016 at 4:36:10 PM

Latest Report: Sep 28, 2016 at 3:53 PM


Visibility: 10 mi

Pressure: 29.89 "Hg

Humidity: 42%

Dew Point: 45 °F

Location of VincennesLocation

Past Weather in Vincennes — Graph

°F

Vincennes Temperature Yesterday

Maximum temperature yesterday: 79 °F (at 2:53 PM)
Minimum temperature yesterday: 47 °F (at 6:53 AM)
Average temperature yesterday: 63 °F

High & Low Weather Summary for the Past Weeks

 TemperatureHumidityPressure
High90 °F (Sep 21, 3:53 PM)100% (Sep 14, 4:53 AM)30.19 "Hg (Sep 14, 4:53 AM)
Low47 °F (Sep 27, 6:53 AM)31% (Sep 26, 5:53 PM)29.77 "Hg (Sep 28, 6:53 AM)
Average72 °F77%30.04 "Hg
* Reported Sep 13 2:53 PM — Sep 28 2:53 PM, Vincennes, Weather by CustomWeather, © 2016

Note: Actual official high and low records may vary slightly from our data, if they occured in-between our weather recording intervals... More about our weather records

Advertising

Vincennes Weather History for the Previous 24 Hours

Scroll right to see more
 ConditionsComfort  
Time TempWeatherWind HumidityBarometerVisibility
2:53 PM
Wed, Sep 28
71 °FPartly sunny.15 mph44%29.86 "Hg10 mi
1:53 PM69 °FScattered clouds.18 mph51%29.85 "Hg10 mi
12:53 PM66 °FScattered clouds.13 mph65%29.83 "Hg10 mi
11:53 AM62 °FMore clouds than sun.12 mph78%29.81 "Hg10 mi
10:53 AM62 °FLight rain. Overcast.7 mph75%29.80 "Hg7 mi
9:53 AM62 °FPartly sunny.6 mph75%29.78 "Hg10 mi
8:53 AM60 °FSunny.No wind78%29.77 "Hg10 mi
7:53 AM58 °FSunny.6 mph84%29.77 "Hg10 mi
6:53 AM58 °FClear.3 mph84%29.77 "Hg10 mi
5:53 AM58 °FClear.6 mph81%29.78 "Hg10 mi
4:53 AM58 °FClear.6 mph81%29.78 "Hg10 mi
3:53 AM59 °FClear.5 mph78%29.79 "Hg10 mi
2:53 AM60 °FPassing clouds.7 mph75%29.80 "Hg10 mi
1:53 AM64 °FClear.10 mph65%29.81 "Hg10 mi
12:53 AM60 °FPassing clouds.7 mph72%29.83 "Hg10 mi
11:53 PM
Tue, Sep 27
59 °FClear.7 mph72%29.84 "Hg10 mi
10:53 PM59 °FPassing clouds.7 mph72%29.84 "Hg10 mi
9:53 PM60 °FClear.7 mph69%29.85 "Hg10 mi
8:53 PM62 °FClear.8 mph62%29.85 "Hg10 mi
7:53 PM65 °FClear.8 mph54%29.85 "Hg9 mi
6:53 PM74 °FSunny.12 mph36%29.84 "Hg10 mi
5:53 PM77 °FSunny.16 mph32%29.84 "Hg10 mi
4:53 PM78 °FSunny.15 mph32%29.85 "Hg10 mi
Weather by CustomWeather, © 2016

See weather overviewHow to use our weather pages